Location: Christianberg
(48.9086°N, 14.0209°E)
Time: 21:00:18
(UTC+00:00)

CBERS-1 - Pass Details

Date: 20 June 2021
Orbit: 770 x 776 km, 98.7° (Epoch: 03 August)

Event Time Altitude Azimuth Distance (km) Brightness Sun altitude
Rises 01:58:00 0° 13° (NNE) 3,268 8.6 -8.1°
Reaches altitude 10° 02:00:19 10° 12° (NNE) 2,337 7.6 -7.8°
Maximum altitude 02:05:28 79° 287° (WNW) 797 4.1 -7.3°
Drops below altitude 10° 02:10:35 10° 202° (SSW) 2,321 5.9 -6.7°
Enters shadow 02:11:26 - 201° (SSW) 2,660 6.2 -6.6°
